Time,TemperatureF,DewpointF,PressureIn,WindDirection,WindDirectionDegrees,WindSpeedMPH,WindSpeedGustMPH,Humidity,HourlyPrecipIn,Conditions,Clouds,dailyrainin,SoftwareType,DateUTC
2013-02-11 00:09:00,38.8,37.5,29.56,SSW,202,6.3,-999.0,95,-99.99,,,0.00,Acu-Link.com,2013-02-11 05:09:00,
2013-02-11 01:39:00,41.0,40.7,29.54,SSW,202,3.2,-999.0,99,-99.99,,,0.00,Acu-Link.com,2013-02-11 06:39:00,
2013-02-11 02:11:00,41.4,41.1,29.52,South,180,5.8,-999.0,99,-99.99,,,0.00,Acu-Link.com,2013-02-11 07:11:00,
2013-02-11 02:27:00,41.9,41.6,29.51,South,180,6.8,-999.0,99,-99.99,,,0.00,Acu-Link.com,2013-02-11 07:27:00,
2013-02-11 02:48:00,42.1,41.8,29.50,South,180,4.7,-999.0,99,-99.99,,,0.00,Acu-Link.com,2013-02-11 07:48:00,
2013-02-11 04:20:00,42.8,42.5,29.45,East,90,5.3,-999.0,99,-99.99,,,0.00,Acu-Link.com,2013-02-11 09:20:00,
2013-02-11 04:43:00,42.8,42.5,29.44,South,180,6.8,-999.0,99,-99.99,,,0.00,Acu-Link.com,2013-02-11 09:43:00,
2013-02-11 05:00:00,42.8,42.5,29.43,SSW,202,5.3,-999.0,99,-99.99,,,0.00,Acu-Link.com,2013-02-11 10:00:00,
2013-02-11 05:22:00,43.5,43.2,29.43,SW,225,5.3,-999.0,99,-99.99,,,0.00,Acu-Link.com,2013-02-11 10:22:00,
2013-02-11 07:20:00,41.0,37.1,29.43,SSW,202,5.8,-999.0,86,-99.99,,,0.00,Acu-Link.com,2013-02-11 12:20:00,
2013-02-11 08:08:00,40.5,30.8,29.44,WSW,247,9.9,-999.0,68,-99.99,,,0.00,Acu-Link.com,2013-02-11 13:08:00,
2013-02-11 08:26:00,39.9,30.6,29.45,WNW,292,8.9,-999.0,69,-99.99,,,0.00,Acu-Link.com,2013-02-11 13:26:00,
2013-02-11 08:46:00,39.9,30.6,29.46,SSW,202,10.9,-999.0,69,-99.99,,,0.00,Acu-Link.com,2013-02-11 13:46:00,
2013-02-11 09:04:00,39.0,30.4,29.45,SW,225,8.3,-999.0,71,-99.99,,,0.00,Acu-Link.com,2013-02-11 14:04:00,
2013-02-11 10:14:00,36.9,27.3,29.47,WSW,247,8.3,-999.0,68,-99.99,,,0.00,Acu-Link.com,2013-02-11 15:14:00,
2013-02-11 10:33:00,36.1,26.6,29.49,West,270,11.9,-999.0,68,-99.99,,,0.00,Acu-Link.com,2013-02-11 15:33:00,
2013-02-11 11:17:00,36.0,26.8,29.48,South,180,10.9,-999.0,69,-99.99,,,0.00,Acu-Link.com,2013-02-11 16:17:00,
2013-02-11 11:53:00,34.7,27.6,29.50,West,270,5.3,-999.0,75,-99.99,,,0.00,Acu-Link.com,2013-02-11 16:53:00,
2013-02-11 12:11:00,34.7,27.6,29.49,SW,225,19.1,-999.0,75,-99.99,,,0.00,Acu-Link.com,2013-02-11 17:11:00,
2013-02-11 12:28:00,35.2,27.1,29.49,SW,225,11.9,-999.0,72,-99.99,,,0.00,Acu-Link.com,2013-02-11 17:28:00,
2013-02-11 12:44:00,35.4,26.9,29.49,SW,225,6.3,-999.0,71,-99.99,,,0.00,Acu-Link.com,2013-02-11 17:44:00,
2013-02-11 13:22:00,36.0,26.8,29.49,SW,225,10.4,-999.0,69,-99.99,,,0.00,Acu-Link.com,2013-02-11 18:22:00,
2013-02-11 13:56:00,35.4,26.3,29.50,WSW,247,10.4,-999.0,69,-99.99,,,0.00,Acu-Link.com,2013-02-11 18:56:00,
2013-02-11 14:12:00,35.2,26.1,29.52,SW,225,10.9,-999.0,69,-99.99,,,0.00,Acu-Link.com,2013-02-11 19:12:00,
2013-02-11 14:32:00,35.1,26.3,29.52,WSW,247,7.3,-999.0,70,-99.99,,,0.00,Acu-Link.com,2013-02-11 19:32:00,
2013-02-11 14:48:00,34.9,26.5,29.52,WSW,247,10.4,-999.0,71,-99.99,,,0.00,Acu-Link.com,2013-02-11 19:48:00,
2013-02-11 15:05:00,34.3,26.6,29.53,WSW,247,9.4,-999.0,73,-99.99,,,0.00,Acu-Link.com,2013-02-11 20:05:00,
2013-02-11 15:55:00,34.3,26.9,29.55,West,270,18.1,-999.0,74,-99.99,,,0.00,Acu-Link.com,2013-02-11 20:55:00,
2013-02-11 18:11:00,33.3,28.1,29.63,WSW,247,7.8,-999.0,81,-99.99,,,0.00,Acu-Link.com,2013-02-11 23:11:00,
2013-02-11 18:29:00,33.1,28.2,29.63,SSW,202,5.8,-999.0,82,-99.99,,,0.00,Acu-Link.com,2013-02-11 23:29:00,
2013-02-11 19:10:00,32.9,28.0,29.66,SSW,202,6.3,-999.0,82,-99.99,,,0.00,Acu-Link.com,2013-02-12 00:10:00,
2013-02-11 21:01:00,32.0,26.5,29.69,WSW,247,14.0,-999.0,80,-99.99,,,0.00,Acu-Link.com,2013-02-12 02:01:00,
2013-02-11 21:31:00,31.5,26.7,29.70,WSW,247,7.3,-999.0,82,-99.99,,,0.00,Acu-Link.com,2013-02-12 02:31:00,
2013-02-11 21:57:00,31.5,26.7,29.69,SW,225,4.7,-999.0,82,-99.99,,,0.00,Acu-Link.com,2013-02-12 02:57:00,
2013-02-11 22:55:00,31.3,27.0,29.72,WNW,292,7.8,-999.0,84,-99.99,,,0.00,Acu-Link.com,2013-02-12 03:55:00,
2013-02-11 23:41:00,31.3,26.2,29.73,WNW,292,6.8,-999.0,81,-99.99,,,0.00,Acu-Link.com,2013-02-12 04:41:00,
2013-02-11 23:57:00,31.3,26.2,29.73,South,180,11.4,-999.0,81,-99.99,,,0.00,Acu-Link.com,2013-02-12 04:57:00,